Powrót do katalogu

STARLINK-32197

AktywnyŁącznośćVLEO
NORAD 60416·PAYLOAD·🇺🇸 United States

Wystrzelony Aug 10, 2024 z Cape Canaveral Space Force Station

Loading…

Następne Przeloty (najbliższe 24 godziny)

TLE

ŚwieżeSource: CelesTrak SupGP

Epoka: Sep 14, 2026, 21:16 UTC

1 60416C 24141U   26257.88659722  .00019679  00000+0  63301-3 0  2572
2 60416  53.1586  72.4968 0001274  85.3939   7.7694 15.31683091    15

Śledź STARLINK-32197 w czasie rzeczywistym z AllMySat

Download on the App Store